Time,TemperatureF,DewpointF,PressureIn,WindDirection,WindDirectionDegrees,WindSpeedMPH,WindSpeedGustMPH,Humidity,HourlyPrecipIn,Conditions,Clouds,dailyrainin,SoftwareType,DateUTC
2013-12-24 00:03:00,-7.9,-11.2,30.46,ENE,76,0.0,0.0,85,0.00,,---,0.00,VWS V14.01,2013-12-24 06:03:00,
2013-12-24 00:08:00,-7.9,-11.2,30.46,ENE,76,0.0,0.0,85,0.00,,---,0.00,VWS V14.01,2013-12-24 06:08:00,
2013-12-24 00:13:00,-8.0,-11.3,30.46,ENE,76,0.0,0.0,85,0.00,,---,0.00,VWS V14.01,2013-12-24 06:13:00,
2013-12-24 00:18:00,-8.1,-11.4,30.45,ENE,76,0.0,0.0,85,0.00,,---,0.00,VWS V14.01,2013-12-24 06:18:00,
2013-12-24 00:23:00,-8.4,-11.9,30.45,ENE,76,0.0,0.0,84,0.00,,---,0.00,VWS V14.01,2013-12-24 06:23:00,
2013-12-24 00:28:00,-8.5,-11.8,30.45,ENE,75,0.0,0.0,85,0.00,,---,0.00,VWS V14.01,2013-12-24 06:28:00,
2013-12-24 00:33:00,-8.4,-11.7,30.45,ENE,76,0.0,0.0,85,0.00,,---,0.00,VWS V14.01,2013-12-24 06:33:00,
2013-12-24 00:38:00,-8.6,-11.9,30.45,ENE,76,0.0,0.0,85,0.00,,---,0.00,VWS V14.01,2013-12-24 06:38:00,
2013-12-24 00:43:00,-9.1,-12.6,30.45,ENE,76,0.0,0.0,84,0.00,,---,0.00,VWS V14.01,2013-12-24 06:43:00,
2013-12-24 00:48:00,-9.3,-12.8,30.46,ENE,76,0.0,0.0,84,0.00,,---,0.00,VWS V14.01,2013-12-24 06:48:00,
2013-12-24 00:53:00,-9.1,-12.4,30.46,ENE,76,0.0,0.0,85,0.00,,---,0.00,VWS V14.01,2013-12-24 06:53:00,
2013-12-24 00:58:00,-9.3,-12.6,30.46,ENE,75,0.0,0.0,85,0.00,,---,0.00,VWS V14.01,2013-12-24 06:58:00,
2013-12-24 01:03:00,-9.4,-12.7,30.46,ENE,76,0.0,0.0,85,0.00,,---,0.00,VWS V14.01,2013-12-24 07:03:00,
2013-12-24 01:08:00,-9.8,-13.3,30.46,ENE,76,0.0,0.0,84,0.00,,---,0.00,VWS V14.01,2013-12-24 07:08:00,
2013-12-24 01:13:00,-9.9,-13.4,30.46,ENE,76,0.0,0.0,84,0.00,,---,0.00,VWS V14.01,2013-12-24 07:13:00,
2013-12-24 01:18:00,-10.0,-13.3,30.47,ENE,76,0.0,0.0,85,0.00,,---,0.00,VWS V14.01,2013-12-24 07:18:00,
2013-12-24 01:23:00,-9.5,-12.5,30.47,ENE,75,0.0,0.0,86,0.00,,---,0.00,VWS V14.01,2013-12-24 07:23:00,
2013-12-24 01:28:00,-9.7,-13.0,30.47,ENE,75,0.0,0.0,85,0.00,,---,0.00,VWS V14.01,2013-12-24 07:28:00,
2013-12-24 01:34:00,-10.0,-13.5,30.47,ENE,76,0.0,0.0,84,0.00,,---,0.00,VWS V14.01,2013-12-24 07:34:00,
2013-12-24 01:39:00,-10.1,-13.4,30.47,ENE,76,0.0,0.0,85,0.00,,---,0.00,VWS V14.01,2013-12-24 07:39:00,
2013-12-24 01:44:00,-10.1,-13.4,30.47,ENE,76,0.0,0.0,85,0.00,,---,0.00,VWS V14.01,2013-12-24 07:44:00,
2013-12-24 01:49:00,-10.3,-13.6,30.48,ENE,76,0.0,0.0,85,0.00,,---,0.00,VWS V14.01,2013-12-24 07:49:00,
2013-12-24 01:54:00,-10.4,-13.6,30.48,ENE,75,0.0,0.0,85,0.00,,---,0.00,VWS V14.01,2013-12-24 07:54:00,
2013-12-24 01:59:00,-10.5,-13.8,30.48,ENE,76,0.0,0.0,85,0.00,,---,0.00,VWS V14.01,2013-12-24 07:59:00,
2013-12-24 02:04:00,-10.5,-13.8,30.48,ENE,76,0.0,0.0,85,0.00,,---,0.00,VWS V14.01,2013-12-24 08:04:00,
2013-12-24 02:09:00,-10.8,-14.3,30.48,ENE,76,0.0,0.0,84,0.00,,---,0.00,VWS V14.01,2013-12-24 08:09:00,
2013-12-24 02:14:00,-10.9,-14.4,30.48,ENE,76,0.0,0.0,84,0.00,,---,0.00,VWS V14.01,2013-12-24 08:14:00,
2013-12-24 02:19:00,-10.9,-14.1,30.49,ENE,76,0.0,0.0,85,0.00,,---,0.00,VWS V14.01,2013-12-24 08:19:00,
2013-12-24 02:24:00,-10.8,-14.1,30.49,ENE,75,0.0,0.0,85,0.00,,---,0.00,VWS V14.01,2013-12-24 08:24:00,
2013-12-24 02:29:00,-10.8,-14.1,30.49,ENE,76,0.0,0.0,85,0.00,,---,0.00,VWS V14.01,2013-12-24 08:29:00,
2013-12-24 02:34:00,-10.9,-14.1,30.49,ENE,76,0.0,0.0,85,0.00,,---,0.00,VWS V14.01,2013-12-24 08:34:00,
2013-12-24 02:39:00,-10.9,-14.1,30.49,ENE,76,0.0,0.0,85,0.00,,---,0.00,VWS V14.01,2013-12-24 08:39:00,
2013-12-24 02:44:00,-10.8,-14.1,30.49,ENE,76,0.0,0.0,85,0.00,,---,0.00,VWS V14.01,2013-12-24 08:44:00,
2013-12-24 02:49:00,-10.6,-13.9,30.49,ENE,76,0.0,0.0,85,0.00,,---,0.00,VWS V14.01,2013-12-24 08:49:00,
2013-12-24 02:54:00,-10.6,-13.9,30.49,ENE,76,0.0,0.0,85,0.00,,---,0.00,VWS V14.01,2013-12-24 08:54:00,
2013-12-24 02:59:00,-10.6,-13.9,30.49,ENE,76,0.0,0.0,85,0.00,,---,0.00,VWS V14.01,2013-12-24 08:59:00,
2013-12-24 03:04:00,-10.5,-13.8,30.49,ENE,76,0.0,0.0,85,0.00,,---,0.00,VWS V14.01,2013-12-24 09:04:00,
2013-12-24 03:10:00,-10.5,-13.8,30.49,ENE,75,0.0,0.0,85,0.00,,---,0.00,VWS V14.01,2013-12-24 09:10:00,
2013-12-24 03:15:00,-10.4,-13.6,30.49,ENE,75,0.0,0.0,85,0.00,,---,0.00,VWS V14.01,2013-12-24 09:15:00,
2013-12-24 03:20:00,-10.3,-13.6,30.50,ENE,75,0.0,0.0,85,0.00,,---,0.00,VWS V14.01,2013-12-24 09:20:00,
2013-12-24 03:25:00,-10.4,-13.6,30.50,ENE,76,0.0,0.0,85,0.00,,---,0.00,VWS V14.01,2013-12-24 09:25:00,
2013-12-24 03:30:00,-10.5,-13.8,30.50,ENE,76,0.0,0.0,85,0.00,,---,0.00,VWS V14.01,2013-12-24 09:30:00,
2013-12-24 03:35:00,-10.6,-14.1,30.50,ENE,76,0.0,0.0,84,0.00,,---,0.00,VWS V14.01,2013-12-24 09:35:00,
2013-12-24 03:40:00,-10.8,-14.3,30.50,ENE,76,0.0,0.0,84,0.00,,---,0.00,VWS V14.01,2013-12-24 09:40:00,
2013-12-24 03:45:00,-10.9,-14.4,30.49,ENE,76,0.0,0.0,84,0.00,,---,0.00,VWS V14.01,2013-12-24 09:45:00,
2013-12-24 03:50:00,-11.1,-14.6,30.49,ENE,75,0.0,0.0,84,0.00,,---,0.00,VWS V14.01,2013-12-24 09:50:00,
2013-12-24 03:55:00,-11.3,-14.8,30.49,ENE,76,0.0,0.0,84,0.00,,---,0.00,VWS V14.01,2013-12-24 09:55:00,
2013-12-24 04:00:00,-11.4,-14.9,30.49,ENE,75,0.0,0.0,84,0.00,,---,0.00,VWS V14.01,2013-12-24 10:00:00,
2013-12-24 04:05:00,-11.5,-15.0,30.49,ENE,75,0.0,0.0,84,0.00,,---,0.00,VWS V14.01,2013-12-24 10:05:00,
2013-12-24 04:10:00,-11.6,-15.1,30.49,ENE,76,0.0,0.0,84,0.00,,---,0.00,VWS V14.01,2013-12-24 10:10:00,
2013-12-24 04:15:00,-11.8,-15.3,30.49,ENE,76,0.0,0.0,84,0.00,,---,0.00,VWS V14.01,2013-12-24 10:15:00,
2013-12-24 04:20:00,-11.9,-15.4,30.49,ENE,76,0.0,0.0,84,0.00,,---,0.00,VWS V14.01,2013-12-24 10:20:00,
2013-12-24 04:25:00,-11.9,-15.4,30.49,ENE,76,0.0,0.0,84,0.00,,---,0.00,VWS V14.01,2013-12-24 10:25:00,
2013-12-24 04:30:00,-12.1,-15.6,30.49,ENE,76,0.0,0.0,84,0.00,,---,0.00,VWS V14.01,2013-12-24 10:30:00,
2013-12-24 04:36:00,-12.1,-15.6,30.49,ENE,76,0.0,0.0,84,0.00,,---,0.00,VWS V14.01,2013-12-24 10:36:00,
2013-12-24 04:41:00,-12.2,-15.7,30.49,ENE,76,0.0,0.0,84,0.00,,---,0.00,VWS V14.01,2013-12-24 10:41:00,
2013-12-24 04:46:00,-12.4,-15.9,30.49,ENE,75,0.0,0.0,84,0.00,,---,0.00,VWS V14.01,2013-12-24 10:46:00,
2013-12-24 04:51:00,-12.2,-15.7,30.49,ENE,76,0.0,0.0,84,0.00,,---,0.00,VWS V14.01,2013-12-24 10:51:00,
2013-12-24 04:56:00,-12.3,-15.5,30.49,ENE,75,0.0,0.0,85,0.00,,---,0.00,VWS V14.01,2013-12-24 10:56:00,
2013-12-24 05:01:00,-12.4,-15.9,30.49,ENE,75,0.0,0.0,84,0.00,,---,0.00,VWS V14.01,2013-12-24 11:01:00,
2013-12-24 05:06:00,-12.7,-16.1,30.49,ENE,76,0.0,0.0,84,0.00,,---,0.00,VWS V14.01,2013-12-24 11:06:00,
2013-12-24 05:11:00,-13.1,-16.8,30.49,ENE,76,0.0,0.0,83,0.00,,---,0.00,VWS V14.01,2013-12-24 11:11:00,
2013-12-24 05:16:00,-13.5,-17.2,30.49,ENE,76,0.0,0.0,83,0.00,,---,0.00,VWS V14.01,2013-12-24 11:16:00,
2013-12-24 05:21:00,-13.6,-17.3,30.49,ENE,76,0.0,0.0,83,0.00,,---,0.00,VWS V14.01,2013-12-24 11:21:00,
2013-12-24 05:26:00,-13.6,-17.3,30.49,ENE,75,0.0,0.0,83,0.00,,---,0.00,VWS V14.01,2013-12-24 11:26:00,
2013-12-24 05:31:00,-13.6,-17.0,30.50,ENE,76,0.0,0.0,84,0.00,,---,0.00,VWS V14.01,2013-12-24 11:31:00,
2013-12-24 05:36:00,-13.6,-17.0,30.50,ENE,76,0.0,0.0,84,0.00,,---,0.00,VWS V14.01,2013-12-24 11:36:00,
2013-12-24 05:41:00,-13.6,-17.0,30.50,ENE,76,0.0,0.0,84,0.00,,---,0.00,VWS V14.01,2013-12-24 11:41:00,
2013-12-24 05:46:00,-13.5,-16.9,30.51,ENE,76,0.0,0.0,84,0.00,,---,0.00,VWS V14.01,2013-12-24 11:46:00,
2013-12-24 05:51:00,-13.2,-16.4,30.51,ENE,75,0.0,0.0,85,0.00,,---,0.00,VWS V14.01,2013-12-24 11:51:00,
2013-12-24 05:56:00,-13.3,-16.5,30.51,ENE,75,0.0,0.0,85,0.00,,---,0.00,VWS V14.01,2013-12-24 11:56:00,
2013-12-24 06:02:00,-13.8,-17.5,30.51,ENE,76,0.0,0.0,83,0.00,,---,0.00,VWS V14.01,2013-12-24 12:02:00,
2013-12-24 06:07:00,-14.0,-17.7,30.51,ENE,76,0.0,0.0,83,0.00,,---,0.00,VWS V14.01,2013-12-24 12:07:00,
2013-12-24 06:12:00,-13.9,-17.3,30.51,ENE,76,0.0,0.0,84,0.00,,---,0.00,VWS V14.01,2013-12-24 12:12:00,
2013-12-24 06:17:00,-13.9,-17.3,30.51,ENE,76,0.0,0.0,84,0.00,,---,0.00,VWS V14.01,2013-12-24 12:17:00,
2013-12-24 06:22:00,-14.0,-17.4,30.51,ENE,76,0.0,0.0,84,0.00,,---,0.00,VWS V14.01,2013-12-24 12:22:00,
2013-12-24 06:27:00,-14.1,-17.5,30.51,ENE,76,0.0,0.0,84,0.00,,---,0.00,VWS V14.01,2013-12-24 12:27:00,
2013-12-24 06:32:00,-14.2,-17.6,30.52,ENE,75,0.0,0.0,84,0.00,,---,0.00,VWS V14.01,2013-12-24 12:32:00,
2013-12-24 06:37:00,-14.4,-17.8,30.52,ENE,76,0.0,0.0,84,0.00,,---,0.00,VWS V14.01,2013-12-24 12:37:00,
2013-12-24 06:42:00,-14.4,-18.0,30.52,ENE,76,0.0,0.0,83,0.00,,---,0.00,VWS V14.01,2013-12-24 12:42:00,
2013-12-24 06:47:00,-14.5,-18.1,30.52,ENE,76,0.0,0.0,83,0.00,,---,0.00,VWS V14.01,2013-12-24 12:47:00,
2013-12-24 06:52:00,-14.7,-18.4,30.52,ENE,76,0.0,0.0,83,0.00,,---,0.00,VWS V14.01,2013-12-24 12:52:00,
2013-12-24 06:58:00,-14.7,-18.4,30.52,ENE,75,0.0,0.0,83,0.00,,---,0.00,VWS V14.01,2013-12-24 12:58:00,
2013-12-24 07:03:00,-14.6,-18.2,30.52,ENE,76,0.0,0.0,83,0.00,,---,0.00,VWS V14.01,2013-12-24 13:03:00,
2013-12-24 07:08:00,-14.5,-17.9,30.52,ENE,76,0.0,0.0,84,0.00,,---,0.00,VWS V14.01,2013-12-24 13:08:00,
2013-12-24 07:13:00,-13.8,-17.0,30.52,ENE,76,0.0,0.0,85,0.00,,---,0.00,VWS V14.01,2013-12-24 13:13:00,
2013-12-24 07:18:00,-14.1,-17.5,30.52,ENE,75,0.0,0.0,84,0.00,,---,0.00,VWS V14.01,2013-12-24 13:18:00,
2013-12-24 07:23:00,-14.4,-17.8,30.52,ENE,76,0.0,0.0,84,0.00,,---,0.00,VWS V14.01,2013-12-24 13:23:00,
2013-12-24 07:28:00,-14.7,-18.4,30.52,ENE,76,0.0,0.0,83,0.00,,---,0.00,VWS V14.01,2013-12-24 13:28:00,
2013-12-24 07:33:00,-14.8,-18.4,30.53,ENE,75,0.0,0.0,83,0.00,,---,0.00,VWS V14.01,2013-12-24 13:33:00,
2013-12-24 07:38:00,-14.7,-18.1,30.53,ENE,76,0.0,0.0,84,0.00,,---,0.00,VWS V14.01,2013-12-24 13:38:00,
2013-12-24 07:43:00,-14.8,-18.2,30.53,ENE,75,0.0,0.0,84,0.00,,---,0.00,VWS V14.01,2013-12-24 13:43:00,
2013-12-24 07:48:00,-14.9,-18.3,30.53,ENE,76,0.0,0.0,84,0.00,,---,0.00,VWS V14.01,2013-12-24 13:48:00,
2013-12-24 07:53:00,-14.9,-18.3,30.53,ENE,76,0.0,0.0,84,0.00,,---,0.00,VWS V14.01,2013-12-24 13:53:00,
2013-12-24 07:58:00,-14.8,-18.2,30.53,ENE,75,0.0,0.0,84,0.00,,---,0.00,VWS V14.01,2013-12-24 13:58:00,
2013-12-24 08:03:00,-14.7,-18.1,30.54,ENE,75,0.0,0.0,84,0.00,,---,0.00,VWS V14.01,2013-12-24 14:03:00,
2013-12-24 08:08:00,-14.5,-17.9,30.54,ENE,75,0.0,0.0,84,0.00,,---,0.00,VWS V14.01,2013-12-24 14:08:00,
2013-12-24 08:13:00,-14.4,-17.8,30.54,ENE,75,0.0,0.0,84,0.00,,---,0.00,VWS V14.01,2013-12-24 14:13:00,
2013-12-24 08:19:00,-14.1,-17.3,30.55,ENE,76,0.0,0.0,85,0.00,,---,0.00,VWS V14.01,2013-12-24 14:19:00,
2013-12-24 08:24:00,-13.8,-17.0,30.55,ENE,75,0.0,0.0,85,0.00,,---,0.00,VWS V14.01,2013-12-24 14:24:00,
2013-12-24 08:29:00,-13.4,-16.6,30.55,ENE,75,0.0,0.0,85,0.00,,---,0.00,VWS V14.01,2013-12-24 14:29:00,
2013-12-24 08:34:00,-12.8,-16.0,30.55,ENE,76,0.0,0.0,85,0.00,,---,0.00,VWS V14.01,2013-12-24 14:34:00,
2013-12-24 08:39:00,-12.0,-15.2,30.55,ENE,76,0.0,0.0,85,0.00,,---,0.00,VWS V14.01,2013-12-24 14:39:00,
2013-12-24 08:44:00,-11.4,-14.6,30.55,ENE,76,0.0,0.0,85,0.00,,---,0.00,VWS V14.01,2013-12-24 14:44:00,
2013-12-24 08:49:00,-11.0,-14.2,30.55,ENE,76,0.0,0.0,85,0.00,,---,0.00,VWS V14.01,2013-12-24 14:49:00,
2013-12-24 08:54:00,-10.6,-13.9,30.55,ENE,76,0.0,0.0,85,0.00,,---,0.00,VWS V14.01,2013-12-24 14:54:00,
2013-12-24 08:59:00,-10.1,-13.1,30.55,ENE,76,0.0,0.0,86,0.00,,---,0.00,VWS V14.01,2013-12-24 14:59:00,
2013-12-24 09:04:00,-9.4,-12.4,30.55,ENE,76,0.0,0.0,86,0.00,,---,0.00,VWS V14.01,2013-12-24 15:04:00,
2013-12-24 09:09:00,-8.8,-11.6,30.55,ENE,76,0.0,0.0,87,0.00,,---,0.00,VWS V14.01,2013-12-24 15:09:00,
2013-12-24 09:14:00,-8.3,-11.1,30.55,ENE,76,0.0,0.0,87,0.00,,---,0.00,VWS V14.01,2013-12-24 15:14:00,
2013-12-24 09:19:00,-7.8,-10.6,30.54,ENE,76,0.0,0.0,87,0.00,,---,0.00,VWS V14.01,2013-12-24 15:19:00,
2013-12-24 09:24:00,-7.2,-10.0,30.54,ENE,76,0.0,0.0,87,0.00,,---,0.00,VWS V14.01,2013-12-24 15:24:00,
2013-12-24 09:29:00,-6.4,-9.2,30.54,ENE,75,0.0,0.0,87,0.00,,---,0.00,VWS V14.01,2013-12-24 15:29:00,
2013-12-24 09:34:00,-5.5,-8.1,30.55,ENE,76,0.0,0.0,88,0.00,,---,0.00,VWS V14.01,2013-12-24 15:34:00,
2013-12-24 09:39:00,-4.6,-7.0,30.55,ENE,76,0.0,0.0,89,0.00,,---,0.00,VWS V14.01,2013-12-24 15:39:00,
2013-12-24 09:45:00,-4.0,-6.7,30.55,ENE,76,0.0,0.0,88,0.00,,---,0.00,VWS V14.01,2013-12-24 15:45:00,
2013-12-24 09:50:00,-3.2,-5.6,30.55,ENE,76,0.0,0.0,89,0.00,,---,0.00,VWS V14.01,2013-12-24 15:50:00,
2013-12-24 09:55:00,-2.3,-4.7,30.55,ENE,76,0.0,0.0,89,0.00,,---,0.00,VWS V14.01,2013-12-24 15:55:00,
2013-12-24 10:00:00,-1.6,-4.1,30.55,ENE,76,0.0,0.0,89,0.00,,---,0.00,VWS V14.01,2013-12-24 16:00:00,
2013-12-24 10:05:00,-0.5,-2.7,30.55,ENE,76,0.0,0.0,90,0.00,,---,0.00,VWS V14.01,2013-12-24 16:05:00,
2013-12-24 10:10:00,0.6,-1.4,30.55,ENE,76,0.0,0.0,91,0.00,,---,0.00,VWS V14.01,2013-12-24 16:10:00,
2013-12-24 10:15:00,1.4,-0.9,30.55,ENE,76,0.0,0.0,90,0.00,,---,0.00,VWS V14.01,2013-12-24 16:15:00,
2013-12-24 10:20:00,2.4,0.4,30.55,South,191,0.0,0.0,91,0.00,,---,0.00,VWS V14.01,2013-12-24 16:20:00,
2013-12-24 10:25:00,3.4,1.4,30.55,SSW,194,0.0,0.0,91,0.00,,---,0.00,VWS V14.01,2013-12-24 16:25:00,
2013-12-24 10:30:00,4.5,2.5,30.55,SSW,203,0.0,0.0,91,0.00,,---,0.00,VWS V14.01,2013-12-24 16:30:00,
2013-12-24 10:35:00,5.9,3.8,30.55,SSE,159,0.0,0.0,91,0.00,,---,0.00,VWS V14.01,2013-12-24 16:35:00,
2013-12-24 10:40:00,7.2,5.1,30.55,SSW,199,0.0,0.0,91,0.00,,---,0.00,VWS V14.01,2013-12-24 16:40:00,
2013-12-24 10:45:00,8.0,5.4,30.55,West,263,0.0,0.0,89,0.00,,---,0.00,VWS V14.01,2013-12-24 16:45:00,
2013-12-24 10:50:00,8.7,5.9,30.55,SW,225,0.0,0.0,88,0.00,,---,0.00,VWS V14.01,2013-12-24 16:50:00,
2013-12-24 10:55:00,9.7,6.9,30.55,SE,138,0.0,0.0,88,0.00,,---,0.00,VWS V14.01,2013-12-24 16:55:00,
2013-12-24 11:00:00,10.4,7.1,30.54,WSW,242,0.0,0.0,86,0.00,,---,0.00,VWS V14.01,2013-12-24 17:00:00,
2013-12-24 11:05:00,10.9,7.3,30.54,SSW,203,0.0,0.0,85,0.00,,---,0.00,VWS V14.01,2013-12-24 17:05:00,
2013-12-24 11:11:00,11.5,7.6,30.54,SSW,209,0.0,0.0,84,0.00,,---,0.00,VWS V14.01,2013-12-24 17:11:00,
2013-12-24 11:16:00,12.0,7.6,30.53,ESE,122,0.0,0.0,82,0.00,,---,0.00,VWS V14.01,2013-12-24 17:16:00,
2013-12-24 11:21:00,12.4,8.0,30.53,WSW,248,0.0,0.0,82,0.00,,---,0.00,VWS V14.01,2013-12-24 17:21:00,
2013-12-24 11:26:00,12.8,7.8,30.53,SSE,159,0.0,0.0,80,0.00,,---,0.00,VWS V14.01,2013-12-24 17:26:00,
2013-12-24 11:31:00,13.2,7.6,30.53,West,263,0.0,0.0,78,0.00,,---,0.00,VWS V14.01,2013-12-24 17:31:00,
2013-12-24 11:36:00,13.4,7.8,30.53,West,272,0.0,0.0,78,0.00,,---,0.00,VWS V14.01,2013-12-24 17:36:00,
2013-12-24 11:41:00,13.7,7.8,30.53,ESE,119,0.0,0.0,77,0.00,,---,0.00,VWS V14.01,2013-12-24 17:41:00,
2013-12-24 11:46:00,13.9,7.4,30.52,SSE,155,0.0,0.0,75,0.00,,---,0.00,VWS V14.01,2013-12-24 17:46:00,
2013-12-24 11:51:00,14.1,7.7,30.52,ENE,73,0.0,0.0,75,0.00,,---,0.00,VWS V14.01,2013-12-24 17:51:00,
2013-12-24 11:56:00,14.3,8.1,30.52,ESE,118,0.0,0.0,76,0.00,,---,0.00,VWS V14.01,2013-12-24 17:56:00,
2013-12-24 12:01:00,14.4,7.9,30.51,SSE,159,0.0,0.0,75,0.00,,---,0.00,VWS V14.01,2013-12-24 18:01:00,
2013-12-24 12:06:00,14.4,7.3,30.51,SE,132,0.0,0.0,73,0.00,,---,0.00,VWS V14.01,2013-12-24 18:06:00,
2013-12-24 12:11:00,14.4,7.0,30.51,ESE,121,0.0,0.0,72,0.00,,---,0.00,VWS V14.01,2013-12-24 18:11:00,
2013-12-24 12:16:00,14.3,6.9,30.50,SE,138,0.0,0.0,72,0.00,,---,0.00,VWS V14.01,2013-12-24 18:16:00,
2013-12-24 12:21:00,14.5,7.1,30.50,SE,137,0.0,0.0,72,0.00,,---,0.00,VWS V14.01,2013-12-24 18:21:00,
2013-12-24 12:26:00,14.6,6.9,30.50,ESE,105,0.0,0.0,71,0.00,,---,0.00,VWS V14.01,2013-12-24 18:26:00,
2013-12-24 12:31:00,14.6,6.9,30.49,WSW,244,0.0,0.0,71,0.00,,---,0.00,VWS V14.01,2013-12-24 18:31:00,
2013-12-24 12:36:00,14.7,7.0,30.49,SSE,156,0.0,0.0,71,0.00,,---,0.00,VWS V14.01,2013-12-24 18:36:00,
2013-12-24 12:42:00,14.7,7.0,30.49,SW,236,0.0,0.0,71,0.00,,---,0.00,VWS V14.01,2013-12-24 18:42:00,
2013-12-24 12:47:00,14.9,7.2,30.49,WSW,248,0.0,0.0,71,0.00,,---,0.00,VWS V14.01,2013-12-24 18:47:00,
2013-12-24 12:52:00,15.3,7.6,30.49,West,260,0.0,0.0,71,0.00,,---,0.00,VWS V14.01,2013-12-24 18:52:00,
2013-12-24 12:57:00,15.6,7.9,30.49,SSW,202,0.0,0.0,71,0.00,,---,0.00,VWS V14.01,2013-12-24 18:57:00,
2013-12-24 13:02:00,15.7,7.7,30.49,SE,127,0.0,0.0,70,0.00,,---,0.00,VWS V14.01,2013-12-24 19:02:00,
2013-12-24 13:07:00,15.7,7.7,30.49,East,84,0.0,0.0,70,0.00,,---,0.00,VWS V14.01,2013-12-24 19:07:00,
2013-12-24 13:12:00,15.5,7.5,30.49,SE,136,0.0,0.0,70,0.00,,---,0.00,VWS V14.01,2013-12-24 19:12:00,
2013-12-24 13:17:00,15.6,7.3,30.48,SSE,165,0.0,0.0,69,0.00,,---,0.00,VWS V14.01,2013-12-24 19:17:00,
2013-12-24 13:22:00,15.6,7.3,30.48,ESE,121,0.0,0.0,69,0.00,,---,0.00,VWS V14.01,2013-12-24 19:22:00,
2013-12-24 13:27:00,15.7,7.3,30.48,WSW,250,0.0,0.0,69,0.00,,---,0.00,VWS V14.01,2013-12-24 19:27:00,
2013-12-24 13:32:00,15.7,7.0,30.48,SE,139,0.0,0.0,68,0.00,,---,0.00,VWS V14.01,2013-12-24 19:32:00,
2013-12-24 13:37:00,15.7,7.0,30.48,ESE,105,0.0,0.0,68,0.00,,---,0.00,VWS V14.01,2013-12-24 19:37:00,
2013-12-24 13:42:00,15.7,7.3,30.48,South,187,0.0,0.0,69,0.00,,---,0.00,VWS V14.01,2013-12-24 19:42:00,
2013-12-24 13:47:00,15.8,7.1,30.47,SE,126,0.0,0.0,68,0.00,,---,0.00,VWS V14.01,2013-12-24 19:47:00,
2013-12-24 13:52:00,15.6,6.9,30.47,SE,142,0.0,0.0,68,0.00,,---,0.00,VWS V14.01,2013-12-24 19:52:00,
2013-12-24 13:57:00,15.6,6.9,30.47,SE,125,0.0,0.0,68,0.00,,---,0.00,VWS V14.01,2013-12-24 19:57:00,
2013-12-24 14:02:00,15.7,7.0,30.47,ESE,122,0.0,0.0,68,0.00,,---,0.00,VWS V14.01,2013-12-24 20:02:00,
2013-12-24 14:07:00,15.6,6.9,30.47,SSW,207,0.0,0.0,68,0.00,,---,0.00,VWS V14.01,2013-12-24 20:07:00,
2013-12-24 14:13:00,15.6,6.6,30.47,SE,132,0.0,0.0,67,0.00,,---,0.00,VWS V14.01,2013-12-24 20:13:00,
2013-12-24 14:18:00,15.4,6.4,30.46,SE,132,0.0,0.0,67,0.00,,---,0.00,VWS V14.01,2013-12-24 20:18:00,
2013-12-24 14:23:00,15.2,5.9,30.46,ESE,122,0.0,0.0,66,0.00,,---,0.00,VWS V14.01,2013-12-24 20:23:00,
2013-12-24 14:28:00,15.0,5.7,30.46,SSE,165,0.0,0.0,66,0.00,,---,0.00,VWS V14.01,2013-12-24 20:28:00,
2013-12-24 14:33:00,14.9,5.9,30.46,SE,129,0.0,0.0,67,0.00,,---,0.00,VWS V14.01,2013-12-24 20:33:00,
2013-12-24 14:38:00,14.7,5.8,30.46,SE,135,0.0,0.0,67,0.00,,---,0.00,VWS V14.01,2013-12-24 20:38:00,
2013-12-24 14:43:00,14.4,5.8,30.46,ESE,113,0.0,0.0,68,0.00,,---,0.00,VWS V14.01,2013-12-24 20:43:00,
2013-12-24 14:48:00,14.4,5.8,30.46,SSW,213,0.0,0.0,68,0.00,,---,0.00,VWS V14.01,2013-12-24 20:48:00,
2013-12-24 14:53:00,14.3,6.0,30.46,SSE,151,0.0,0.0,69,0.00,,---,0.00,VWS V14.01,2013-12-24 20:53:00,
2013-12-24 14:58:00,14.3,6.0,30.46,SSE,161,0.0,0.0,69,0.00,,---,0.00,VWS V14.01,2013-12-24 20:58:00,
2013-12-24 15:03:00,14.2,5.9,30.46,SSE,155,0.0,0.0,69,0.00,,---,0.00,VWS V14.01,2013-12-24 21:03:00,
2013-12-24 15:08:00,14.2,6.2,30.46,SW,218,0.0,0.0,70,0.00,,---,0.00,VWS V14.01,2013-12-24 21:08:00,
2013-12-24 15:13:00,14.3,6.3,30.46,SSE,149,0.0,0.0,70,0.00,,---,0.00,VWS V14.01,2013-12-24 21:13:00,
2013-12-24 15:18:00,14.3,6.3,30.45,SW,220,0.0,0.0,70,0.00,,---,0.00,VWS V14.01,2013-12-24 21:18:00,
2013-12-24 15:23:00,14.1,6.1,30.45,SSW,200,0.0,0.0,70,0.00,,---,0.00,VWS V14.01,2013-12-24 21:23:00,
2013-12-24 15:28:00,14.0,6.0,30.45,SSE,152,0.0,0.0,70,0.00,,---,0.00,VWS V14.01,2013-12-24 21:28:00,
2013-12-24 15:33:00,13.7,6.1,30.45,ESE,122,0.0,0.0,71,0.00,,---,0.00,VWS V14.01,2013-12-24 21:33:00,
2013-12-24 15:38:00,13.4,6.1,30.45,SE,124,0.0,0.0,72,0.00,,---,0.00,VWS V14.01,2013-12-24 21:38:00,
2013-12-24 15:44:00,13.2,5.9,30.45,SE,128,0.0,0.0,72,0.00,,---,0.00,VWS V14.01,2013-12-24 21:44:00,
2013-12-24 15:49:00,13.0,5.7,30.44,ESE,118,0.0,0.0,72,0.00,,---,0.00,VWS V14.01,2013-12-24 21:49:00,
2013-12-24 15:54:00,12.8,5.8,30.44,SSE,165,0.0,0.0,73,0.00,,---,0.00,VWS V14.01,2013-12-24 21:54:00,
2013-12-24 15:59:00,12.5,5.5,30.44,ESE,122,0.0,0.0,73,0.00,,---,0.00,VWS V14.01,2013-12-24 21:59:00,
2013-12-24 16:04:00,12.4,5.7,30.44,SSE,155,0.0,0.0,74,0.00,,---,0.00,VWS V14.01,2013-12-24 22:04:00,
2013-12-24 16:09:00,12.1,5.4,30.44,WSW,237,0.0,0.0,74,0.00,,---,0.00,VWS V14.01,2013-12-24 22:09:00,
2013-12-24 16:14:00,11.6,5.5,30.44,SSE,153,0.0,0.0,76,0.00,,---,0.00,VWS V14.01,2013-12-24 22:14:00,
2013-12-24 16:19:00,11.6,5.5,30.45,SE,127,0.0,0.0,76,0.00,,---,0.00,VWS V14.01,2013-12-24 22:19:00,
2013-12-24 16:24:00,11.6,5.5,30.45,ESE,119,0.0,0.0,76,0.00,,---,0.00,VWS V14.01,2013-12-24 22:24:00,
2013-12-24 16:29:00,11.7,5.6,30.45,SE,134,0.0,0.0,76,0.00,,---,0.00,VWS V14.01,2013-12-24 22:29:00,
2013-12-24 16:34:00,11.7,5.6,30.44,ESE,122,0.0,0.0,76,0.00,,---,0.00,VWS V14.01,2013-12-24 22:34:00,
2013-12-24 16:39:00,11.6,5.5,30.44,SSE,156,0.0,0.0,76,0.00,,---,0.00,VWS V14.01,2013-12-24 22:39:00,
2013-12-24 16:44:00,11.6,5.5,30.44,SE,128,0.0,0.0,76,0.00,,---,0.00,VWS V14.01,2013-12-24 22:44:00,
2013-12-24 16:49:00,11.5,5.4,30.43,SE,127,0.0,0.0,76,0.00,,---,0.00,VWS V14.01,2013-12-24 22:49:00,
2013-12-24 16:54:00,11.4,5.6,30.43,SE,130,0.0,0.0,77,0.00,,---,0.00,VWS V14.01,2013-12-24 22:54:00,
2013-12-24 16:59:00,11.3,5.5,30.43,SE,127,0.0,0.0,77,0.00,,---,0.00,VWS V14.01,2013-12-24 22:59:00,
2013-12-24 17:04:00,11.2,5.7,30.43,SE,127,0.0,0.0,78,0.00,,---,0.00,VWS V14.01,2013-12-24 23:04:00,
2013-12-24 17:09:00,11.1,5.6,30.43,SE,136,0.0,0.0,78,0.00,,---,0.00,VWS V14.01,2013-12-24 23:09:00,
2013-12-24 17:14:00,11.1,5.6,30.43,SSW,202,0.0,0.0,78,0.00,,---,0.00,VWS V14.01,2013-12-24 23:14:00,
2013-12-24 17:20:00,11.1,5.6,30.43,SE,133,0.0,0.0,78,0.00,,---,0.00,VWS V14.01,2013-12-24 23:20:00,
2013-12-24 17:25:00,11.1,5.3,30.43,SE,133,0.0,0.0,77,0.00,,---,0.00,VWS V14.01,2013-12-24 23:25:00,
2013-12-24 17:30:00,11.1,5.3,30.43,SE,128,0.0,0.0,77,0.00,,---,0.00,VWS V14.01,2013-12-24 23:30:00,
2013-12-24 17:35:00,11.1,5.3,30.43,SE,145,0.0,0.0,77,0.00,,---,0.00,VWS V14.01,2013-12-24 23:35:00,
2013-12-24 17:40:00,11.1,5.3,30.43,ESE,115,0.0,0.0,77,0.00,,---,0.00,VWS V14.01,2013-12-24 23:40:00,
2013-12-24 17:45:00,11.1,5.3,30.43,SE,140,0.0,0.0,77,0.00,,---,0.00,VWS V14.01,2013-12-24 23:45:00,
2013-12-24 17:50:00,11.0,5.2,30.43,SE,135,0.0,0.0,77,0.00,,---,0.00,VWS V14.01,2013-12-24 23:50:00,
2013-12-24 17:55:00,11.0,5.5,30.43,SE,136,0.0,0.0,78,0.00,,---,0.00,VWS V14.01,2013-12-24 23:55:00,
2013-12-24 18:00:00,11.0,5.5,30.43,SSE,148,0.0,0.0,78,0.00,,---,0.00,VWS V14.01,2013-12-25 00:00:00,
2013-12-24 18:05:00,10.9,5.4,30.43,SE,138,0.0,0.0,78,0.00,,---,0.00,VWS V14.01,2013-12-25 00:05:00,
2013-12-24 18:10:00,10.9,5.4,30.43,SSE,149,0.0,0.0,78,0.00,,---,0.00,VWS V14.01,2013-12-25 00:10:00,
2013-12-24 18:15:00,10.8,5.3,30.43,SE,125,0.0,0.0,78,0.00,,---,0.00,VWS V14.01,2013-12-25 00:15:00,
2013-12-24 18:20:00,10.8,5.6,30.43,SE,130,0.0,0.0,79,0.00,,---,0.00,VWS V14.01,2013-12-25 00:20:00,
2013-12-24 18:25:00,10.7,5.5,30.43,SE,130,0.0,0.0,79,0.00,,---,0.00,VWS V14.01,2013-12-25 00:25:00,
2013-12-24 18:30:00,10.7,5.5,30.43,ESE,116,0.0,0.0,79,0.00,,---,0.00,VWS V14.01,2013-12-25 00:30:00,
2013-12-24 18:35:00,10.6,5.4,30.43,SE,133,0.0,0.0,79,0.00,,---,0.00,VWS V14.01,2013-12-25 00:35:00,
2013-12-24 18:41:00,10.6,5.7,30.43,SSE,153,0.0,0.0,80,0.00,,---,0.00,VWS V14.01,2013-12-25 00:41:00,
2013-12-24 18:46:00,10.5,5.6,30.42,ESE,113,0.0,0.0,80,0.00,,---,0.00,VWS V14.01,2013-12-25 00:46:00,
2013-12-24 18:51:00,10.4,5.5,30.42,ESE,113,0.0,0.0,80,0.00,,---,0.00,VWS V14.01,2013-12-25 00:51:00,
2013-12-24 18:56:00,10.4,5.5,30.42,SE,145,0.0,0.0,80,0.00,,---,0.00,VWS V14.01,2013-12-25 00:56:00,
2013-12-24 19:01:00,10.4,5.5,30.41,ESE,120,0.0,0.0,80,0.00,,---,0.00,VWS V14.01,2013-12-25 01:01:00,
2013-12-24 19:06:00,10.3,5.4,30.41,ESE,123,0.0,0.0,80,0.00,,---,0.00,VWS V14.01,2013-12-25 01:06:00,
2013-12-24 19:11:00,10.3,5.1,30.41,ESE,108,0.0,0.0,79,0.00,,---,0.00,VWS V14.01,2013-12-25 01:11:00,
2013-12-24 19:16:00,10.3,5.1,30.41,SSE,152,0.0,0.0,79,0.00,,---,0.00,VWS V14.01,2013-12-25 01:16:00,
2013-12-24 19:21:00,10.3,5.1,30.41,ESE,121,0.0,0.0,79,0.00,,---,0.00,VWS V14.01,2013-12-25 01:21:00,
2013-12-24 19:26:00,10.3,5.1,30.41,SE,130,0.0,0.0,79,0.00,,---,0.00,VWS V14.01,2013-12-25 01:26:00,
2013-12-24 19:31:00,10.3,5.1,30.41,ESE,119,0.0,0.0,79,0.00,,---,0.00,VWS V14.01,2013-12-25 01:31:00,
2013-12-24 19:36:00,10.3,4.8,30.41,SE,130,0.0,0.0,78,0.00,,---,0.00,VWS V14.01,2013-12-25 01:36:00,
2013-12-24 19:41:00,10.3,4.8,30.41,SSW,196,0.0,0.0,78,0.00,,---,0.00,VWS V14.01,2013-12-25 01:41:00,
2013-12-24 19:46:00,10.3,4.8,30.41,SE,128,0.0,0.0,78,0.00,,---,0.00,VWS V14.01,2013-12-25 01:46:00,
2013-12-24 19:51:00,10.2,4.7,30.41,SE,137,0.0,0.0,78,0.00,,---,0.00,VWS V14.01,2013-12-25 01:51:00,
2013-12-24 19:56:00,10.2,5.0,30.41,SE,127,0.0,0.0,79,0.00,,---,0.00,VWS V14.01,2013-12-25 01:56:00,
2013-12-24 20:01:00,10.2,5.0,30.40,ESE,121,0.0,0.0,79,0.00,,---,0.00,VWS V14.01,2013-12-25 02:01:00,
2013-12-24 20:07:00,10.2,5.0,30.40,SE,129,0.0,0.0,79,0.00,,---,0.00,VWS V14.01,2013-12-25 02:07:00,
2013-12-24 20:12:00,10.2,5.0,30.40,ESE,115,0.0,0.0,79,0.00,,---,0.00,VWS V14.01,2013-12-25 02:12:00,
2013-12-24 20:17:00,10.2,5.0,30.39,SSE,167,0.0,0.0,79,0.00,,---,0.00,VWS V14.01,2013-12-25 02:17:00,
2013-12-24 20:22:00,10.2,5.0,30.39,ESE,122,0.0,0.0,79,0.00,,---,0.00,VWS V14.01,2013-12-25 02:22:00,
2013-12-24 20:27:00,10.2,5.0,30.39,SSE,159,0.0,0.0,79,0.00,,---,0.00,VWS V14.01,2013-12-25 02:27:00,
2013-12-24 20:32:00,10.2,5.3,30.39,South,180,0.0,0.0,80,0.00,,---,0.00,VWS V14.01,2013-12-25 02:32:00,
2013-12-24 20:37:00,10.1,5.2,30.39,SE,126,0.0,0.0,80,0.00,,---,0.00,VWS V14.01,2013-12-25 02:37:00,
2013-12-24 20:42:00,10.2,5.3,30.39,SE,146,0.0,0.0,80,0.00,,---,0.00,VWS V14.01,2013-12-25 02:42:00,
2013-12-24 20:47:00,10.2,5.3,30.38,SSE,147,0.0,0.0,80,0.00,,---,0.00,VWS V14.01,2013-12-25 02:47:00,
2013-12-24 20:52:00,10.2,5.3,30.38,SE,145,0.0,0.0,80,0.00,,---,0.00,VWS V14.01,2013-12-25 02:52:00,
2013-12-24 20:57:00,10.2,5.5,30.38,SSE,149,0.0,0.0,81,0.00,,---,0.00,VWS V14.01,2013-12-25 02:57:00,
2013-12-24 21:02:00,10.2,5.5,30.37,SE,136,0.0,0.0,81,0.00,,---,0.00,VWS V14.01,2013-12-25 03:02:00,
2013-12-24 21:07:00,10.3,5.6,30.37,ESE,113,0.0,0.0,81,0.00,,---,0.00,VWS V14.01,2013-12-25 03:07:00,
2013-12-24 21:12:00,10.2,5.5,30.37,SE,134,0.0,0.0,81,0.00,,---,0.00,VWS V14.01,2013-12-25 03:12:00,
2013-12-24 21:17:00,10.2,5.5,30.36,SE,135,0.0,0.0,81,0.00,,---,0.00,VWS V14.01,2013-12-25 03:17:00,
2013-12-24 21:22:00,10.2,5.8,30.36,ESE,122,0.0,0.0,82,0.00,,---,0.00,VWS V14.01,2013-12-25 03:22:00,
2013-12-24 21:27:00,10.2,5.8,30.36,SE,144,0.0,0.0,82,0.00,,---,0.00,VWS V14.01,2013-12-25 03:27:00,
2013-12-24 21:32:00,10.1,6.0,30.36,SE,128,0.0,0.0,83,0.00,,---,0.00,VWS V14.01,2013-12-25 03:32:00,
2013-12-24 21:38:00,10.0,6.1,30.36,ESE,123,0.0,0.0,84,0.00,,---,0.00,VWS V14.01,2013-12-25 03:38:00,
2013-12-24 21:43:00,10.0,6.1,30.36,SE,142,0.0,0.0,84,0.00,,---,0.00,VWS V14.01,2013-12-25 03:43:00,
2013-12-24 21:48:00,9.9,6.3,30.34,SE,132,0.0,0.0,85,0.00,,---,0.00,VWS V14.01,2013-12-25 03:48:00,
2013-12-24 21:53:00,10.0,6.4,30.34,ESE,120,0.0,0.0,85,0.00,,---,0.00,VWS V14.01,2013-12-25 03:53:00,
2013-12-24 21:58:00,9.9,6.6,30.34,SE,129,0.0,0.0,86,0.00,,---,0.00,VWS V14.01,2013-12-25 03:58:00,
2013-12-24 22:03:00,9.9,6.6,30.34,ESE,110,0.0,0.0,86,0.00,,---,0.00,VWS V14.01,2013-12-25 04:03:00,
2013-12-24 22:08:00,9.9,6.8,30.34,SE,129,0.0,0.0,87,0.00,,---,0.00,VWS V14.01,2013-12-25 04:08:00,
2013-12-24 22:13:00,9.9,6.8,30.34,SE,140,0.0,0.0,87,0.00,,---,0.00,VWS V14.01,2013-12-25 04:13:00,
2013-12-24 22:18:00,9.9,6.8,30.33,SE,128,0.0,0.0,87,0.00,,---,0.00,VWS V14.01,2013-12-25 04:18:00,
2013-12-24 22:23:00,9.8,7.0,30.33,SE,140,0.0,0.0,88,0.00,,---,0.00,VWS V14.01,2013-12-25 04:23:00,
2013-12-24 22:28:00,9.8,7.0,30.33,SE,144,0.0,0.0,88,0.00,,---,0.00,VWS V14.01,2013-12-25 04:28:00,
2013-12-24 22:33:00,9.9,7.1,30.31,ESE,119,0.0,0.0,88,0.00,,---,0.00,VWS V14.01,2013-12-25 04:33:00,
2013-12-24 22:38:00,9.9,7.1,30.31,ESE,109,0.0,0.0,88,0.00,,---,0.00,VWS V14.01,2013-12-25 04:38:00,
2013-12-24 22:43:00,9.9,7.1,30.31,SSE,165,0.0,0.0,88,0.00,,---,0.00,VWS V14.01,2013-12-25 04:43:00,
2013-12-24 22:48:00,9.9,7.1,30.31,SE,129,0.0,0.0,88,0.00,,---,0.00,VWS V14.01,2013-12-25 04:48:00,
2013-12-24 22:53:00,9.9,7.1,30.31,SE,141,0.0,0.0,88,0.00,,---,0.00,VWS V14.01,2013-12-25 04:53:00,
2013-12-24 22:58:00,10.0,7.2,30.31,ESE,122,0.0,0.0,88,0.00,,---,0.00,VWS V14.01,2013-12-25 04:58:00,
2013-12-24 23:01:00,10.0,7.2,30.31,SE,125,0.0,0.0,88,0.00,,---,0.00,VWS V14.01,2013-12-25 05:01:00,
2013-12-24 23:05:00,10.0,7.2,30.31,SE,130,0.0,0.0,88,0.00,,---,0.00,VWS V14.01,2013-12-25 05:05:00,
2013-12-24 23:10:00,10.1,7.3,30.31,SE,134,0.0,0.0,88,0.00,,---,0.00,VWS V14.01,2013-12-25 05:10:00,
2013-12-24 23:15:00,10.1,7.3,30.31,SE,129,0.0,0.0,88,0.00,,---,0.00,VWS V14.01,2013-12-25 05:15:00,
2013-12-24 23:20:00,10.1,7.3,30.30,SE,137,0.0,0.0,88,0.00,,---,0.00,VWS V14.01,2013-12-25 05:20:00,
2013-12-24 23:25:00,10.1,7.3,30.30,SSE,149,0.0,0.0,88,0.00,,---,0.00,VWS V14.01,2013-12-25 05:25:00,
2013-12-24 23:30:00,10.1,7.3,30.30,SE,135,0.0,0.0,88,0.00,,---,0.00,VWS V14.01,2013-12-25 05:30:00,
2013-12-24 23:35:00,10.1,7.3,30.29,SE,128,0.0,0.0,88,0.00,,---,0.00,VWS V14.01,2013-12-25 05:35:00,
2013-12-24 23:40:00,10.0,7.2,30.29,ESE,111,0.0,0.0,88,0.00,,---,0.00,VWS V14.01,2013-12-25 05:40:00,
2013-12-24 23:45:00,10.1,7.5,30.27,SSE,147,0.0,0.0,89,0.00,,---,0.00,VWS V14.01,2013-12-25 05:45:00,
2013-12-24 23:50:00,10.0,7.4,30.27,SE,146,0.0,0.0,89,0.00,,---,0.00,VWS V14.01,2013-12-25 05:50:00,
2013-12-24 23:55:00,10.0,7.4,30.27,SSE,155,0.0,0.0,89,0.00,,---,0.00,VWS V14.01,2013-12-25 05:55:00,